Terug naar catalogus

STARLINK-35552

ActiefCommunicatieVLEO
NORAD 66058·PAYLOAD·🇺🇸 United States

Gelanceerd Oct 19, 2025 vanaf Cape Canaveral Space Force Station

Loading…

Volgende Passages (komende 24 uur)

TLE

VersSource: CelesTrak SupGP

Epoch: Sep 14, 2026, 23:10 UTC

1 66058C 25235A   26257.96576389  .00039565  00000+0  11691-2 0  2571
2 66058  53.1585  79.4089 0001236  76.0702 307.2652 15.34366563    13

Volg STARLINK-35552 in realtime met AllMySat

Download on the App Store